Weather History for CWYW - August, 2013

Change the Weather History Date:

Tuesday, August 27, 2013

  Actual Average Record
Temperature  
Mean Temperature 70 °F -  
Max Temperature 86 °F - - ()
Min Temperature 54 °F - - ()
Cooling Degree Days 5    
Growing Degree Days 20 (Base 50)    
Moisture  
Dew Point 61 °F    
Average Humidity 72    
Maximum Humidity 94    
Minimum Humidity 32    
Precipitation  
Precipitation 0.00 in - - ()
Sea Level Pressure  
Sea Level Pressure 29.89 in    
Wind  
Wind Speed 1 mph ()    
Max Wind Speed 4 mph    
Max Gust Speed -    
T = Trace of Precipitation, MM = Missing Value Source: Averaged Metar Reports

Daily Weather History Graph

Daily Weather History Graph

Search for Another Location

Airport or City:

Trip Planner

Search our weather history database for the weather conditions in past years. The results will help you decide how hot, cold, wet, or windy it might be!

Date:

Astronomy

Aug. 27, 2013 Rise Set
Actual Time 7:03 AM EDT 8:49 PM EDT
Civil Twilight 6:28 AM EDT 9:24 PM EDT
Nautical Twilight 5:46 AM EDT 10:06 PM EDT
Astronomical Twilight 4:58 AM EDT 10:53 PM EDT
Moon 11:56 PM EDT (8/27) 2:46 PM EDT (8/27)
Length of Visible Light 14h 55m
Length of Day
13h 46m
Waning Gibbous, 57% of the Moon is Illuminated
Aug 27
Waning Gibbous
Aug 28
Last Quarter
Sep 5
New
Sep 12
First Quarter
Sep 19
Full

Hourly Weather History & Observations

Time (EDT) Temp. Heat Index Dew Point Humidity Pressure Visibility Wind Dir Wind Speed Gust Speed Precip Events Conditions
12:00 AM 66.9 °F - 63.1 °F 88% 29.93 in - Variable 1.2 mph - N/A   Unknown
1:00 AM 64.8 °F - 62.4 °F 92% 29.92 in - SSE 1.2 mph - N/A   Unknown
2:00 AM 63 °F - 60 °F 87% 29.91 in - Calm Calm - -  
2:00 AM 62.6 °F - 60.3 °F 92% 29.91 in - Calm Calm - N/A   Unknown
3:00 AM 60.4 °F - 57.9 °F 91% 29.89 in - Calm Calm - N/A   Unknown
4:00 AM 58.8 °F - 56.7 °F 93% 29.88 in - SE 1.2 mph - N/A   Unknown
5:00 AM 57 °F - 54 °F 88% 29.88 in - WNW 2.3 mph - -  
5:00 AM 56.8 °F - 54.7 °F 92% 29.88 in - WNW 2.3 mph - N/A   Unknown
6:00 AM 55.9 °F - 54.0 °F 93% 29.88 in - Calm Calm - N/A   Unknown
7:00 AM 54.9 °F - 52.9 °F 93% 29.88 in - Calm Calm - N/A   Unknown
8:00 AM 58 °F - 56 °F 90% 29.90 in - Calm Calm - -  
8:00 AM 57.7 °F - 55.9 °F 94% 29.89 in - Calm Calm - N/A   Unknown
9:00 AM 62.2 °F - 60.6 °F 94% 29.91 in - Calm Calm - N/A   Unknown
10:00 AM 69.1 °F - 64.8 °F 86% 29.89 in - Calm Calm - N/A   Unknown
11:00 AM 76 °F - 66 °F 64% 29.89 in - Calm Calm - -  
11:00 AM 76.5 °F - 66.2 °F 70% 29.89 in - Calm Calm - N/A   Unknown
12:00 PM 81.5 °F 82.5 °F 62.4 °F 52% 29.90 in - West 1.2 mph - N/A   Unknown
1:00 PM 81.5 °F 82.2 °F 61.2 °F 50% 29.90 in - WNW 2.3 mph - N/A   Unknown
2:00 PM 84 °F - 59 °F 33% 29.89 in - North 2.2 mph - -  
2:00 PM 84.2 °F 84.0 °F 59.4 °F 43% 29.89 in - Calm Calm - N/A   Unknown
3:00 PM 84.2 °F 84.0 °F 59.7 °F 43% 29.88 in - NNE 1.2 mph - N/A   Unknown
4:00 PM 85.6 °F 84.8 °F 58.1 °F 39% 29.88 in - Calm Calm - N/A   Unknown
5:00 PM 86 °F - 61 °F 32% 29.88 in - Calm Calm - -  
5:00 PM 86.0 °F 86.1 °F 60.8 °F 43% 29.88 in - West 1.2 mph - N/A   Unknown
6:00 PM 85.1 °F 85.7 °F 61.9 °F 46% 29.88 in - Calm Calm - N/A   Unknown
7:00 PM 82.2 °F 83.7 °F 63.9 °F 54% 29.88 in - Calm Calm - N/A   Unknown
8:00 PM 78 °F - 68 °F 65% 29.89 in - Calm Calm - -  
8:00 PM 77.5 °F - 68.5 °F 74% 29.89 in - Calm Calm - N/A   Unknown
9:00 PM 71.2 °F - 65.5 °F 82% 29.89 in - South 2.3 mph - N/A   Unknown
10:00 PM 70.9 °F - 65.5 °F 83% 29.91 in - NNE 1.2 mph - N/A   Unknown
11:00 PM 71 °F - 65 °F 78% 29.93 in - NW 2.3 mph - -  
11:00 PM 70.5 °F - 65.5 °F 84% 29.94 in - NW 3.5 mph - N/A   Unknown